DLH733 ZSPD-EDDF

Flight info

Callsign DLH733
Flight time N/A
Altitude 34000
Route PIK81D PIKAS G330 PIMOL A593 DALIM W157 VYK G212 SOTMU B339 ASILA A575 UPREK W28 ATBUG W66 NUKTI B215 FKG A368 SARIN N161 LEYLA N644 LAGAS SARPI UM10 GOKPA UL746 ODERO LUGEB DEGET ARSIN SUBEN AKINI T161 DEBHI DEBH1D
Aircraft A359/H-SDE2E3GHIJ3J4J5LM1ORWXY/LB1D1

Departure

Time N/A
Airport Shanghai Pudong International Airport (ZSPD)

Arrival

Time 2026-05-07 16:46
Airport Frankfurt Main Airport (EDDF)
Time Latitude Longitude Altitude Speed Heading
2026-05-07 15:42 46.92778 19.55197 34020 ft 459 kts 284°
2026-05-07 15:43 47.01287 19.19986 34033 ft 458 kts 283°
2026-05-07 15:43 47.09702 18.84609 33991 ft 459 kts 283°
2026-05-07 15:44 47.17981 18.49226 33986 ft 460 kts 282°
2026-05-07 15:44 47.26170 18.13663 33982 ft 459 kts 282°
2026-05-07 15:45 47.33526 17.81194 33968 ft 459 kts 282°
2026-05-07 15:45 47.35536 17.72236 33967 ft 459 kts 282°
2026-05-07 15:46 47.43349 17.37053 33966 ft 458 kts 281°
2026-05-07 15:47 47.51193 17.01122 33952 ft 460 kts 281°
2026-05-07 15:47 47.59359 16.64962 33946 ft 468 kts 286°
2026-05-07 15:48 47.69164 16.29532 33967 ft 467 kts 285°
2026-05-07 15:48 47.78717 15.93640 33975 ft 466 kts 285°
2026-05-07 15:49 47.86570 15.63737 33981 ft 466 kts 285°
2026-05-07 15:49 47.93660 15.36402 33979 ft 466 kts 286°
2026-05-07 15:50 48.02223 15.02949 34017 ft 467 kts 286°
2026-05-07 15:50 48.10482 14.70208 33987 ft 468 kts 287°
2026-05-07 15:51 48.12761 14.61089 34008 ft 468 kts 287°
2026-05-07 15:51 48.15018 14.52023 33994 ft 467 kts 287°
2026-05-07 15:52 48.17277 14.42910 33992 ft 467 kts 287°
2026-05-07 15:52 48.19540 14.33742 33990 ft 468 kts 287°
2026-05-07 15:53 48.21752 14.24746 34014 ft 468 kts 287°
2026-05-07 15:53 48.24044 14.15388 33993 ft 469 kts 287°
2026-05-07 15:54 48.26271 14.06256 33990 ft 469 kts 287°
2026-05-07 15:54 48.34711 13.71302 34005 ft 467 kts 287°
2026-05-07 15:55 48.40285 13.47914 34009 ft 467 kts 287°
2026-05-07 15:55 48.42462 13.38704 34004 ft 466 kts 287°
2026-05-07 15:56 48.44657 13.29516 34013 ft 466 kts 288°
2026-05-07 15:56 48.47053 13.20460 34008 ft 466 kts 290°
2026-05-07 15:57 48.49477 13.11490 34010 ft 466 kts 289°
2026-05-07 15:57 48.51875 13.02453 34015 ft 466 kts 289°
2026-05-07 15:58 48.54253 12.93365 34012 ft 465 kts 289°
2026-05-07 15:58 48.56619 12.84265 34014 ft 465 kts 289°
2026-05-07 15:59 48.59044 12.74901 34013 ft 465 kts 289°
2026-05-07 15:59 48.64527 12.53597 34021 ft 466 kts 289°
2026-05-07 16:00 48.66864 12.44457 34016 ft 466 kts 289°
2026-05-07 16:00 48.69193 12.35312 34026 ft 466 kts 289°
2026-05-07 16:01 48.71504 12.26202 34028 ft 466 kts 289°
2026-05-07 16:01 48.73822 12.17023 34023 ft 466 kts 289°
2026-05-07 16:02 48.75484 12.07546 34026 ft 464 kts 279°
2026-05-07 16:02 48.76598 11.97900 34024 ft 464 kts 278°
2026-05-07 16:03 48.77617 11.88256 34023 ft 464 kts 278°
2026-05-07 16:03 48.81604 11.50195 34020 ft 464 kts 278°
2026-05-07 16:04 48.82868 11.37817 34021 ft 464 kts 278°
2026-05-07 16:04 48.84115 11.28247 34022 ft 464 kts 286°
2026-05-07 16:04 48.85291 11.23692 33867 ft 459 kts 294°
2026-05-07 16:05 48.86911 11.19468 33348 ft 469 kts 303°
2026-05-07 16:05 48.88982 11.15690 32720 ft 469 kts 313°
2026-05-07 16:05 48.91397 11.12364 32070 ft 467 kts 323°
2026-05-07 16:05 48.94266 11.10081 31469 ft 466 kts 339°
2026-05-07 16:06 48.97429 11.09101 30872 ft 466 kts 354°
2026-05-07 16:06 49.00653 11.09508 30360 ft 466 kts 11°
2026-05-07 16:06 49.03654 11.11293 30067 ft 462 kts 26°
2026-05-07 16:06 49.06279 11.13963 29792 ft 453 kts 33°
2026-05-07 16:07 49.08779 11.16826 29488 ft 442 kts 34°
2026-05-07 16:07 49.11187 11.19630 29195 ft 432 kts 34°
2026-05-07 16:07 49.13547 11.22375 28931 ft 421 kts 33°
2026-05-07 16:07 49.15988 11.24722 28677 ft 408 kts 24°
2026-05-07 16:08 49.18565 11.26388 28416 ft 393 kts 14°
2026-05-07 16:08 49.21161 11.27281 28197 ft 380 kts
2026-05-07 16:08 49.23783 11.27433 27873 ft 370 kts 354°
2026-05-07 16:08 49.26306 11.26856 27459 ft 364 kts 343°
2026-05-07 16:09 49.28651 11.25616 27025 ft 359 kts 334°
2026-05-07 16:09 49.30818 11.23748 26596 ft 354 kts 324°
2026-05-07 16:09 49.32714 11.21354 26161 ft 350 kts 314°
2026-05-07 16:09 49.34277 11.18562 25732 ft 347 kts 305°
2026-05-07 16:10 49.35516 11.15393 25278 ft 346 kts 296°
2026-05-07 16:10 49.36406 11.11967 24698 ft 349 kts 287°
2026-05-07 16:10 49.36950 11.08179 24258 ft 381 kts 278°
2026-05-07 16:10 49.37105 11.03983 24069 ft 408 kts 270°
2026-05-07 16:11 49.37047 10.99515 24047 ft 428 kts 269°
2026-05-07 16:11 49.36961 10.94909 24044 ft 433 kts 269°
2026-05-07 16:11 49.36877 10.90339 24050 ft 434 kts 269°
2026-05-07 16:11 49.36794 10.85692 24059 ft 434 kts 269°
2026-05-07 16:12 49.36713 10.81035 24054 ft 434 kts 269°
2026-05-07 16:12 49.36632 10.76440 24052 ft 434 kts 269°
2026-05-07 16:12 49.36550 10.71800 24051 ft 434 kts 269°
2026-05-07 16:12 49.36466 10.67153 24060 ft 435 kts 269°
2026-05-07 16:13 49.36382 10.62561 24053 ft 435 kts 269°
2026-05-07 16:13 49.36294 10.57878 24052 ft 435 kts 269°
2026-05-07 16:13 49.36261 10.53277 24054 ft 435 kts 272°
2026-05-07 16:13 49.36630 10.48639 24054 ft 434 kts 283°
2026-05-07 16:14 49.37544 10.44283 24048 ft 434 kts 293°
2026-05-07 16:14 49.39006 10.40203 24044 ft 434 kts 303°
2026-05-07 16:14 49.40701 10.36414 24047 ft 434 kts 304°
2026-05-07 16:14 49.42451 10.32613 24044 ft 435 kts 304°
2026-05-07 16:15 49.44204 10.28798 24048 ft 434 kts 304°
2026-05-07 16:15 49.45933 10.25017 24048 ft 433 kts 304°
2026-05-07 16:15 49.47644 10.21261 24049 ft 433 kts 304°
2026-05-07 16:15 49.49379 10.17442 24048 ft 433 kts 304°
2026-05-07 16:16 49.51105 10.13634 24048 ft 433 kts 304°
2026-05-07 16:16 49.52812 10.09861 24055 ft 433 kts 304°
2026-05-07 16:16 49.54537 10.06039 24048 ft 435 kts 304°
2026-05-07 16:16 49.56279 10.02177 24047 ft 437 kts 304°
2026-05-07 16:17 49.57997 9.98364 24045 ft 437 kts 304°
2026-05-07 16:17 49.59734 9.94510 24045 ft 438 kts 304°
2026-05-07 16:17 49.61467 9.90650 24048 ft 438 kts 304°
2026-05-07 16:17 49.63197 9.86787 24045 ft 438 kts 304°
2026-05-07 16:18 49.64930 9.82912 24048 ft 439 kts 304°
2026-05-07 16:18 49.66662 9.79037 24049 ft 439 kts 304°
2026-05-07 16:18 49.68393 9.75157 24013 ft 437 kts 303°
2026-05-07 16:18 49.70103 9.71320 23396 ft 431 kts 303°
2026-05-07 16:19 49.71800 9.67507 22543 ft 430 kts 303°
2026-05-07 16:19 49.73484 9.63716 21810 ft 426 kts 303°
2026-05-07 16:19 49.75153 9.59962 21113 ft 421 kts 303°
2026-05-07 16:19 49.76801 9.56244 20424 ft 417 kts 303°
2026-05-07 16:20 49.78410 9.52601 19749 ft 413 kts 303°
2026-05-07 16:20 49.80018 9.48957 19107 ft 409 kts 303°
2026-05-07 16:20 49.81619 9.45326 18426 ft 405 kts 303°
2026-05-07 16:20 49.83199 9.41737 17831 ft 399 kts 303°
2026-05-07 16:21 49.84737 9.38232 17487 ft 386 kts 303°
2026-05-07 16:21 49.86063 9.34692 17179 ft 373 kts 295°
2026-05-07 16:21 49.86968 9.31010 16901 ft 361 kts 287°
2026-05-07 16:21 49.87677 9.27383 16630 ft 346 kts 286°
2026-05-07 16:22 49.88332 9.23927 16230 ft 325 kts 286°
2026-05-07 16:22 49.88954 9.20645 15834 ft 306 kts 287°
2026-05-07 16:22 49.89537 9.17570 15500 ft 289 kts 287°
2026-05-07 16:22 49.90087 9.14670 15142 ft 274 kts 287°
2026-05-07 16:23 49.90618 9.11871 14639 ft 267 kts 287°
2026-05-07 16:23 49.91138 9.09127 14071 ft 263 kts 287°
2026-05-07 16:23 49.91653 9.06415 13469 ft 260 kts 287°
2026-05-07 16:23 49.92326 9.03872 12835 ft 257 kts 300°
2026-05-07 16:24 49.93263 9.01526 12213 ft 254 kts 303°
2026-05-07 16:24 49.94237 8.99245 11622 ft 252 kts 303°
2026-05-07 16:24 49.95212 8.96983 11033 ft 250 kts 303°
2026-05-07 16:24 49.96177 8.94745 10459 ft 248 kts 303°
2026-05-07 16:25 49.97120 8.92560 9894 ft 245 kts 303°
2026-05-07 16:25 49.98069 8.90362 9279 ft 243 kts 303°
2026-05-07 16:25 49.99007 8.88191 8673 ft 241 kts 303°
2026-05-07 16:25 49.99923 8.86071 8095 ft 238 kts 303°
2026-05-07 16:26 50.00845 8.83935 7501 ft 236 kts 303°
2026-05-07 16:26 50.01758 8.81826 7099 ft 235 kts 303°
2026-05-07 16:26 50.02681 8.79697 6508 ft 238 kts 303°
2026-05-07 16:26 50.03290 8.78295 6193 ft 234 kts 303°
2026-05-07 16:27 50.04497 8.75509 5987 ft 231 kts 303°
2026-05-07 16:27 50.05395 8.73427 5990 ft 231 kts 303°
2026-05-07 16:27 50.06278 8.71379 5991 ft 230 kts 303°
2026-05-07 16:27 50.07177 8.69295 5993 ft 230 kts 303°
2026-05-07 16:28 50.08061 8.67244 5993 ft 231 kts 303°
2026-05-07 16:28 50.08957 8.65168 5992 ft 230 kts 303°
2026-05-07 16:28 50.09860 8.63090 5991 ft 230 kts 305°
2026-05-07 16:28 50.11042 8.61436 5994 ft 232 kts 333°
2026-05-07 16:29 50.12591 8.60962 5994 ft 234 kts
2026-05-07 16:29 50.14114 8.61833 5996 ft 238 kts 34°
2026-05-07 16:29 50.15162 8.63839 5996 ft 242 kts 64°
2026-05-07 16:29 50.15721 8.66289 5882 ft 241 kts 72°
2026-05-07 16:30 50.16169 8.68813 5513 ft 242 kts 73°
2026-05-07 16:30 50.16598 8.71353 5154 ft 242 kts 73°
2026-05-07 16:30 50.17023 8.73879 5006 ft 240 kts 73°
2026-05-07 16:30 50.17448 8.76400 4995 ft 241 kts 73°
2026-05-07 16:31 50.17873 8.78928 4993 ft 241 kts 73°
2026-05-07 16:31 50.18297 8.81457 4993 ft 241 kts 73°
2026-05-07 16:31 50.18722 8.83976 4993 ft 240 kts 73°
2026-05-07 16:31 50.19148 8.86502 4991 ft 240 kts 73°
2026-05-07 16:32 50.19573 8.89029 4991 ft 240 kts 73°
2026-05-07 16:32 50.20000 8.91558 4992 ft 241 kts 73°
2026-05-07 16:32 50.20421 8.94054 4992 ft 241 kts 73°
2026-05-07 16:32 50.20845 8.96574 4990 ft 241 kts 73°
2026-05-07 16:33 50.21268 8.99108 4994 ft 241 kts 74°
2026-05-07 16:33 50.21693 9.01639 4995 ft 241 kts 73°
2026-05-07 16:33 50.22116 9.04169 4994 ft 241 kts 73°
2026-05-07 16:33 50.22539 9.06699 4995 ft 241 kts 73°
2026-05-07 16:34 50.22958 9.09209 4994 ft 240 kts 73°
2026-05-07 16:34 50.23380 9.11731 4993 ft 241 kts 73°
2026-05-07 16:34 50.23805 9.14268 4995 ft 241 kts 73°
2026-05-07 16:34 50.24085 9.15938 4992 ft 241 kts 73°
2026-05-07 16:35 50.24509 9.18471 4992 ft 241 kts 73°
2026-05-07 16:35 50.24551 9.21912 4999 ft 243 kts 108°
2026-05-07 16:35 50.23651 9.24108 4988 ft 242 kts 139°
2026-05-07 16:35 50.22226 9.25478 4999 ft 241 kts 156°
2026-05-07 16:36 50.20685 9.26533 4990 ft 242 kts 158°
2026-05-07 16:36 50.19626 9.27062 4981 ft 241 kts 172°
2026-05-07 16:36 50.17972 9.26816 4990 ft 236 kts 204°
2026-05-07 16:36 50.16699 9.25347 4992 ft 231 kts 235°
2026-05-07 16:37 50.16110 9.23075 4998 ft 227 kts 265°
2026-05-07 16:37 50.16008 9.20621 4991 ft 227 kts 267°
2026-05-07 16:37 50.15885 9.18147 4986 ft 228 kts 266°
2026-05-07 16:37 50.15755 9.15683 4988 ft 228 kts 266°
2026-05-07 16:38 50.15623 9.13214 4990 ft 228 kts 266°
2026-05-07 16:38 50.15492 9.10782 4990 ft 228 kts 266°
2026-05-07 16:38 50.15360 9.08313 4991 ft 228 kts 266°
2026-05-07 16:38 50.15227 9.05846 4991 ft 228 kts 266°
2026-05-07 16:39 50.15092 9.03379 4994 ft 228 kts 266°
2026-05-07 16:39 50.14960 9.00916 4993 ft 228 kts 266°
2026-05-07 16:39 50.14811 8.98453 4994 ft 228 kts 265°
2026-05-07 16:39 50.14592 8.96057 4984 ft 216 kts 259°
2026-05-07 16:40 50.14195 8.93855 4998 ft 209 kts 253°
2026-05-07 16:40 50.13707 8.91729 5005 ft 207 kts 251°
2026-05-07 16:40 50.13199 8.89618 5000 ft 208 kts 251°
2026-05-07 16:40 50.12694 8.87505 4982 ft 209 kts 252°
2026-05-07 16:41 50.12215 8.85404 4807 ft 205 kts 253°
2026-05-07 16:41 50.11739 8.83349 4541 ft 199 kts 251°
2026-05-07 16:41 50.11255 8.81347 4226 ft 195 kts 251°
2026-05-07 16:41 50.10790 8.79400 3920 ft 186 kts 252°
2026-05-07 16:42 50.10355 8.77572 3651 ft 176 kts 253°
2026-05-07 16:42 50.09933 8.75796 3440 ft 175 kts 252°
2026-05-07 16:42 50.09511 8.74026 3194 ft 176 kts 253°
2026-05-07 16:42 50.09085 8.72238 2951 ft 176 kts 251°
2026-05-07 16:43 50.08657 8.70446 2721 ft 177 kts 252°
2026-05-07 16:43 50.08229 8.68652 2470 ft 177 kts 252°
2026-05-07 16:43 50.07801 8.66853 2216 ft 177 kts 251°
2026-05-07 16:43 50.07374 8.65063 1987 ft 177 kts 251°
2026-05-07 16:44 50.06946 8.63268 1748 ft 176 kts 251°
2026-05-07 16:44 50.06531 8.61532 1498 ft 164 kts 251°
2026-05-07 16:44 50.06148 8.59927 1280 ft 152 kts 251°
2026-05-07 16:44 50.05795 8.58444 1086 ft 141 kts 251°
2026-05-07 16:45 50.05469 8.57080 899 ft 132 kts 249°
2026-05-07 16:45 50.05155 8.55767 731 ft 128 kts 250°
2026-05-07 16:45 50.04845 8.54470 560 ft 128 kts 248°
2026-05-07 16:45 50.04537 8.53175 392 ft 127 kts 248°
2026-05-07 16:46 50.04239 8.51940 355 ft 107 kts 249°
2026-05-07 16:46 50.04081 8.51272 333 ft 28 kts 249°
2026-05-07 16:46 50.03997 8.51052 329 ft 23 kts 232°
2026-05-07 16:46 50.03889 8.50890 328 ft 20 kts 216°
2026-05-07 16:47 50.03816 8.50835 334 ft 8 kts 181°
2026-05-07 16:47 50.03784 8.50873 336 ft 5 kts 126°
2026-05-07 16:47 50.03751 8.50973 352 ft 12 kts 117°